Погода в Цфате

Израиль     32°57′54″N   35°29′48″E
темп.,
°C
ветер,
м/с
пор.,
м/с
влажн.,
%
обл.,
%
осадки,
мм/ч
давл.,
гПа
погр.,
м
13 апреля, вт
вт1300:00+7сз22790 0.0 102116
03:00+7сз22790 0.0 102015
06:00+6ссз22820 0.0 102011
09:00+12в12580 0.0 1021700
12:00+17ююв03400 0.0 10201408
15:00+18ссз33390 0.0 10191237
18:00+14ссз56530 0.0 1019439
21:00+9сз33620 0.0 102037
14 апреля, ср
ср1400:00+9ссз22540 0.0 102013
03:00+9с11555 0.0 101910
06:00+8с22550 0.0 102010
09:00+15в22440 0.0 1020290
12:00+21юв11349 0.0 1019985
15:00+23зсз113164 0.0 10171381
18:00+19ссз34562 0.0 1016150
21:00+14ссз3339100 0.0 101727
15 апреля, чт
чт1500:00+15сз2230100 0.0 101711
03:00+14с223591 0.0 101711
06:00+13ссв114516 0.0 101711
09:00+20всв11350 0.0 1017211
12:00+25вюв11260 0.0 1016960
15:00+27сз22270 0.0 10141882
18:00+22сз44462 0.0 1014105
21:00+18ссз4330100 0.0 101530
16 апреля, пт
пт1600:00+18сз3331100 0.0 101417
03:00+17ссв1136100 0.0 101411
06:00+16с123896 0.0 101412
09:00+22всв123461 0.0 1014212
12:00+28всв1124100 0.0 10131391
15:00+27ссз4330100 0.0 10121495
18:00+21сз4446100 0.0 101362
21:00+19сз433197 0.0 101432
17 апреля, сб
сб1700:00+18сз33320 0.0 101315
03:00+18ссз33326 0.0 101319
06:00+17с2233100 0.0 101311
09:00+23юв10310 0.0 1014234
12:00+28з22255 0.0 10131439
15:00+28сз442678 0.0 1013912
18:00+23сз33406 0.0 101365
21:00+20сз33275 0.0 101518